Starlink 32912

operational
NORAD ID: 63088 Int'l Des: 2025-037 Owner: SPXS Country: US Constellation: starlink
LEOCIRCULAR

Starlink 32912について

説明を読み込み中...

リアルタイム位置

3D地球を読み込み中...

次回通過

高度履歴

Altitude vs Time

uPlot chart will show altitude changes over time

軌道要素

1 63088U 25037M 25352.00002315 .00043466 00000-0 36291-2 0 9996
2 63088 70.0001 200.2583 0002518 278.5786 303.2996 14.98320300 5629
Epoch: Dec 18, 2025 • Age: 8 hours

現在のステータス

高度 595.5 km
速度 7.56 km/s
衛星直下点 -68.50°S, 123.84°W
打ち上げ日 Feb 23, 2025
運用期間 0.8 years
タイプ internet

技術仕様

分類 Payload
質量 730.00 kg
乾燥質量 700.00 kg
総質量 730.00 kg
長さ 0.30 m
直径 4.10 m
スパン 29.00 m
形状 Box + pan
製造者 SPXS
バスタイプ Starlink V2M
フェーズステータス In Orbit
所有者/国 SPXS/US

大規模コンステレーション

Loading constellations...